Weather in Moe

Australia     38°10′40″S   146°15′39″E
temp.,
°C
wind,
m/s
gust,
m/s
humid.,
%
clouds,
%
prec.,
mm/h
press.,
hPa
HPBL,
m
3 march, wed
wed323:00+7w129217 0.0 101922
02:00+7wnw119230 0.0 101852
05:00+9wnw118065 0.0 101879
08:00+10wnw127983 0.0 101998
11:00+15sw245189 0.0 10191287
14:00+17sw344892 0.0 10181497
17:00+17sw354896 0.0 10171410
20:00+11sw16721 0.0 1018261
4 march, thu
thu423:00+8wnw119034 0.0 102025
02:00+9wnw128355 0.0 1018113
05:00+8w129747 0.0 101836
08:00+9wnw169044 0.0 1018255
11:00+16w376458 0.0 10171054
14:00+16w4868100 0.0 1015974
17:00+16w3975100 0.0 1014947
20:00+15w3981100 0.1 1014762
5 march, fri
fri523:00+14w2993100 0.3 1015671
02:00+14wsw299796 0.8 1013719
05:00+11wsw2109765 0.9 1013572
08:00+11wsw278797 0.1 1014768
11:00+14wsw366396 0.1 10151111
14:00+17sw3650100 0.0 10141255
17:00+17sw365150 0.0 10131175
20:00+11wsw267124 0.0 1015582
6 march, sat
sat623:00+10wnw117662 0.0 101663
02:00+6nw00986 0.0 101622
05:00+5ese11993 0.0 101622
08:00+7e13944 0.0 1017100
11:00+16e37492 0.0 1016873
14:00+22e36300 0.0 10151113
17:00+22e46320 0.0 10141294
20:00+14e4105919 0.0 1016800
7 march, sun
sun723:00+12e4127443 0.0 1017685
02:00+11ene3128768 0.0 1015628
05:00+10ene4138946 0.0 1014531
08:00+10ene3118278 0.0 1015397
11:00+17ene255589 0.0 1013357
14:00+28e112635 0.0 1011721
17:00+29nnw252218 0.0 10092887
20:00+20ene275455 0.0 1010344